Location: Unspecified
(0.0000°N, 0.0000°E)
Time: 00:20:45
(UTC+00:00)

CZ-3B DEB - Pass Details

Date: 21 February 2026
Orbit: 643 x 41817 km, 26.5° (Epoch: 5 March)

Event Time Altitude Azimuth Distance (km) Brightness Sun altitude
Rises 23:42:53 0° 115° (ESE) 47,716 ? -76.9°
Reaches altitude 10° 01:06:22 10° 117° (ESE) 45,626 ? -73.1°
Maximum altitude 03:48:25 22° 121° (ESE) 32,232 ? -35.6°
Drops below altitude 10° 05:12:18 10° 114° (ESE) 19,435 ? -15.1°
Sets 05:29:55 0° 109° (ESE) 16,403 ? -10.7°
